Location: Chubiniantkari
(42.0378°N, 44.6472°E)
Time: 06:56:27
(UTC+00:00)

Daily predictions for brighter satellites

Satellite Brightness Start Highest point End
(mag) Time Altitude Azimuth Time Altitude Azimuth Time Altitude Azimuth
Cosmos 1726 Rocket 4.2 14:26:26 10° N 14:30:27 35° ENE 14:34:28 10° SE
Cosmos 1939 Rocket 3.5 14:28:21 10° SE 14:32:09 37° ENE 14:35:56 10° N
Cosmos 2279 Rocket 4.1 14:29:13 10° N 14:35:22 54° ENE 14:41:27 10° SSE
ISS -2.4 14:33:12 10° SSW 14:36:05 27° SE 14:38:59 10° ENE
ERS-2 3.7 14:34:23 10° NE 14:36:55 18° E 14:39:26 10° SE
ATLAS 2AS CENTAUR R/B 4.2 14:33:39 10° WSW 14:40:56 38° NW 14:48:09 10° NNE
CZ-4 R/B 2.7 14:41:17 10° ESE 14:44:20 20° ENE 14:47:21 10° NNE
Cosmos 1315 Rocket 2.8 14:41:52 10° N 14:45:52 86° E 14:49:52 10° S
Cosmos 1634 Rocket 4.3 14:42:40 10° N 14:48:56 76° W 14:55:11 10° S
COSMO-SKYMED 1 2.9 14:45:09 10° NNE 14:49:20 46° E 14:53:30 10° S
Cosmos 1844 Rocket 3.4 14:45:22 10° SSE 14:50:24 34° ESE 14:55:26 10° NE
CZ-2C R/B 3.5 14:46:58 10° SE 14:51:54 43° ENE 14:57:06 10° N
H-2A R/B 2.9 14:51:20 10° ESE 14:55:24 26° ENE 14:59:33 10° N
Okean-O 3.5 14:53:40 10° SE 14:57:22 27° ENE 15:01:06 10° N
H-2A R/B 4.1 14:54:49 10° SSW 14:58:31 37° W 15:02:22 10° NNW
CZ-4B R/B 4.0 14:54:32 10° S 14:59:57 59° WSW 15:05:30 10° NNW
Okean O Rocket 2.3 14:56:01 10° S 15:00:23 59° W 15:04:47 10° NNW
SMAP 4.4 14:57:00 10° S 15:01:25 43° W 15:05:53 10° NNW
Cosmos 773 Rocket 4.0 14:58:25 10° NNW 15:03:36 87° WSW 15:08:43 10° SSE
CZ-4B R/B 1.3 15:04:12 10° NNE 15:07:36 88° W 15:10:53 10° SSW
Cosmos 1818 3.8 15:03:53 10° S 15:09:07 51° ESE 15:13:31 15° NE
OE (NEXTSAT) 4.5 15:05:57 10° W 15:09:22 62° NNW 15:11:22 23° ENE
USA 234 4.5 15:05:38 13° NE 15:09:52 25° N 15:14:59 10° NW
Meteor 2-10 Rocket 3.5 15:06:43 10° N 15:12:13 66° ENE 15:17:27 10° SSE
Aureole 2 Rocket 2.0 15:11:52 10° S 15:14:48 60° ESE 15:16:36 21° NNE
CSL-04 Rocket 4.4 15:10:43 10° ESE 15:15:16 29° ENE 15:19:52 10° N
Cosmos 1689 Rocket 2.6 15:16:17 31° ENE 15:16:45 33° E 15:19:22 10° SSE
CZ-2D R/B 3.2 15:15:26 10° SSE 15:19:17 85° ENE 15:23:10 10° N
YAOGAN 1 2.9 15:15:58 10° SE 15:20:02 43° ENE 15:24:08 10° N
ATLAS 5 CENTAUR R/B 3.5 15:16:51 10° W 15:20:07 23° NW 15:23:43 10° NNE
Cosmos 1892 Rocket 3.8 15:16:43 10° SSW 15:21:03 71° W 15:25:23 10° N
H-2A R/B 4.0 15:18:03 10° N 15:21:55 29° WNW 15:25:41 10° SW
ATLAS 3B R/B 4.4 15:17:13 10° NW 15:23:34 38° WSW 15:30:09 10° S
Meteor 2-1 Rocket 4.2 15:18:37 10° N 15:24:05 53° ENE 15:29:26 10° SSE
BREEZE-M DEB (TANK) 3.3 15:22:20 10° WNW 15:25:07 36° SW 15:26:49 14° SSE
SAR-Lupe-4 3.6 15:22:50 18° NNE 15:25:20 54° E 15:28:50 10° S
Helios 1A Rocket 3.3 15:22:58 10° SE 15:26:50 39° ENE 15:30:42 10° N
Iridium 4 Rocket 4.2 15:23:10 10° NNE 15:28:13 33° E 15:32:56 10° SE
MOS 1 Rocket 3.0 15:25:08 10° N 15:29:27 87° WNW 15:33:44 10° SSW
TELKOM 3 3.6 15:27:23 10° W 15:29:41 44° NNW 15:29:56 42° N
CZ-4C R/B 4.4 15:27:28 10° WNW 15:30:49 16° NNW 15:34:33 10° NNE
Nadezhda 4 Rocket 3.9 15:25:51 10° S 15:32:06 79° E 15:38:19 10° N
SJ-11-01 4.3 15:31:34 10° SSE 15:36:08 54° ENE 15:40:43 10° N
Aureole 3 2.7 15:32:49 10° N 15:36:14 56° E 15:39:13 10° SSE
SAR-Lupe-1 3.9 15:33:59 21° NNE 15:36:15 75° ESE 15:39:48 10° S
Cosmos 1538 Rocket 4.1 15:31:52 10° NNW 15:37:03 78° WSW 15:42:12 10° SSE
SKYMED 2 4.4 15:33:08 10° N 15:37:22 52° WNW 15:41:34 10° SSW
EXPRESS MD2 3.8 15:30:51 10° WNW 15:38:27 78° NNE 15:40:14 35° ESE
SJ 16-02 1.2 15:34:26 10° SSW 15:38:50 83° ESE 15:41:54 20° NNE
Cosmos 2263 Rocket 4.3 15:35:41 10° WSW 15:40:08 23° NW 15:44:36 10° N
BREEZE-M DEB (TANK) 4.2 15:40:57 10° NW 15:41:43 15° NNW 15:41:43 15° NNW
Cosmos 2058 Rocket 4.1 15:48:13 10° NNW 15:52:33 47° W 15:56:52 10° SSW
Cosmos 1455 2.2 15:49:13 10° N 15:53:02 78° W 15:56:51 10° S
ARGOS 3.0 15:48:43 10° SSE 15:53:59 64° ENE 15:59:17 10° N
Cosmos 1703 3.0 15:52:11 10° S 15:56:02 75° E 15:56:12 73° ENE
NOSS 3-1 (C) 4.4 15:50:03 10° NNW 15:57:08 44° NE 15:59:43 35° E
Cosmos 1340 4.3 15:54:41 10° S 15:56:11 22° SSE 15:56:11 22° SSE
Cosmos 44 3.2 15:56:58 10° SSW 16:01:34 58° ESE 16:01:48 57° ESE
X-37B 1.4 15:58:27 10° WSW 16:00:57 51° W 16:00:57 51° W
CSL-04 Debris 4.0 15:58:29 10° SSE 16:03:51 79° ENE 16:09:16 10° NNW
Lacrosse 5 1.7 15:59:58 10° NW 16:05:02 73° NE 16:05:44 62° E
CZ-2C R/B 2.7 16:04:20 44° NE 16:05:46 58° E 16:11:17 10° S
COSMOS 2455 4.0 16:00:22 10° WSW 16:06:00 40° NW 16:10:52 14° NNE
Cosmos 2026 Rocket 3.8 16:03:09 10° S 16:09:11 71° E 16:15:21 10° NNE
ERS-2 4.0 16:07:29 11° N 16:10:28 29° WNW 16:13:38 10° SW
Cosmos 1844 4.0 16:06:09 10° SW 16:11:44 66° WNW 16:15:14 24° NNE
ISS -2.3 16:09:33 10° W 16:12:02 35° WNW 16:12:02 35° WNW
Cosmos 1626 Rocket 4.1 16:09:36 10° SSW 16:13:53 56° W 16:16:48 20° N
USA 229 DEB 4.3 16:07:09 10° NNW 16:13:57 40° NE 16:14:20 40° NE
USA 229 4.3 16:07:15 10° NNW 16:14:02 40° NE 16:14:23 40° NE
Cosmos 990 Rocket 3.8 16:09:54 10° SSW 16:15:07 86° ESE 16:16:09 59° NNE
Meteor 2-19 Rocket 4.4 16:09:09 10° S 16:15:09 59° E 16:15:54 55° ENE
Cosmos 1833 Rocket 4.3 16:10:58 10° N 16:12:58 19° NNE 16:12:58 19° NNE
Cosmos 2082 Rocket 4.4 16:13:36 10° N 16:14:04 11° N 16:14:04 11° N
USA 267 3.2 16:16:51 51° E 16:18:17 64° SE 16:24:45 10° SW
CZ-4 R/B 3.1 16:15:25 10° SSW 16:19:09 33° W 16:22:50 10° NNW
NOSS 3-1 (A) 4.4 16:22:32 10° NNW 16:29:28 44° NE 16:29:28 44° NE
Meteor 1-11 4.4 16:24:09 10° S 16:28:46 58° SSE 16:28:46 58° SSE
Cosmos 1844 Rocket 4.0 16:29:02 10° SW 16:34:13 36° WNW 16:37:42 19° N
Hubble Space Telescope 3.5 16:32:48 10° SSW 16:33:26 11° SSW 16:33:26 11° SSW
H-2A R/B 3.3 16:30:03 10° SSW 16:34:38 37° W 16:39:20 10° NNW
Meteor 2-15 4.4 16:35:03 10° N 16:40:30 71° N 16:40:30 71° N
Cosmos 2278 Rocket 4.1 16:37:08 10° S 16:38:30 18° S 16:38:30 18° S
Cosmos 1898 Rocket 3.8 16:38:15 10° SSW 16:43:21 63° WNW 16:43:21 63° WNW
Cosmos 1680 Rocket 4.0 16:41:01 10° NNW 16:46:09 58° WSW 16:46:09 58° WSW
Cosmos 2344 4.3 16:36:43 10° NNW 16:46:10 68° NE 16:49:29 51° ESE
Cosmos 2098 Rocket 4.5 16:43:10 10° SSW 16:50:06 73° W 16:57:35 10° N
USA 234 3.9 16:52:59 41° N 16:52:59 41° N 16:58:00 10° NW
SJ 16-02 4.4 17:16:55 10° WNW 17:18:02 11° NW 17:18:57 10° NW
CZ-3B R/B 4.2 17:18:27 10° WNW 17:43:07 - SE 17:20:09 32° WNW
